Location: Franklinton
(36.1018°N, 78.4581°W)
Time: 04:39:50
(UTC-04:00)

Envisat - Visible Passes

Search period start: 19 April 2019 00:00
Search period end: 29 April 2019 00:00
Orbit: 764 x 766 km, 98.2° (Epoch: 18 April)

Date Brightness Start Highest point End Pass type
(mag) Time Alt. Az. Time Alt. Az. Time Alt. Az.
19 Apr 5.1 20:39:02 10° SSW 20:43:24 29° W 20:47:48 10° NW visible
21 Apr 5.8 21:06:05 10° SW 21:09:07 16° W 21:12:11 10° NW visible
22 Apr 4.6 20:27:27 10° SSW 20:32:07 37° W 20:36:49 10° NNW visible
24 Apr 5.6 20:54:04 10° SW 20:57:48 21° W 21:01:33 10° NW visible
25 Apr 4.1 20:15:59 10° S 20:20:51 48° W 20:25:46 10° NNW visible
26 Apr 6.1 21:22:28 10° WSW 21:23:35 11° W 21:24:43 10° WNW visible
27 Apr 5.2 20:42:17 10° SSW 20:46:30 26° W 20:50:44 10° NW visible
